Location: Kitt Peak
(31.9639°N, 111.5992°W)
Time: 14:29:43
(UTC-07:00)

SRMSAT - Pass Details

Date: 23 December 2025
Orbit: 846 x 863 km, 20.0° (Epoch: 13 January)

Event Time Altitude Azimuth Distance (km) Brightness Sun altitude
Exits shadow 04:49:49 20° 178° (S) 1,829 ? -31.8°
Drops below altitude 10° 04:53:18 10° 142° (SE) 2,454 ? -31.0°
Sets 04:56:27 0° 126° (SE) 3,392 ? -30.4°
